DW0731 Weather Reports


Display with metric or nautical units.
time (UTC)temp
F
wind
direction
speed
MPH
gust
MPH
rain 1hr
in
rain 24hr
in
rain mn
in
humidity
%
barometer
mb
20200225204651 49 86 0.0 4.0 0.00 0.01 0.01 5 1010.7
20200225203057 50 152 0.0 3.0 0.00 0.01 0.01 4 1010.7
20200225201622 50 107 0.0 4.0 0.00 0.01 0.01 4 1010.6
20200225194644 50 184 0.0 1.0 0.00 0.01 0.01 6 1010.8
20200225193049 50 88 0.0 3.0 0.00 0.01 0.01 6 1010.9
20200225191630 50 146 0.0 2.0 0.00 0.01 0.01 5 1010.9
20200225184618 50 170 0.0 2.0 0.01 0.01 0.01 8 1011.1
20200225183026 50 150 0.0 3.0 0.01 0.01 0.01 9 1011.3
20200225181518 50 168 0.0 2.0 0.01 0.01 0.01 12 1011.5
20200225174512 50 158 0.0 2.0 0.00 0.00 0.00 23 1011.7
20200225173003 51 155 0.0 3.0 0.00 0.00 0.00 36 1011.8
20200225171808 51 167 1.0 5.0 0.00 0.00 0.00 48 1011.9
20200225164741 52 159 0.0 3.0 0.00 0.00 0.00 51 1012.0
20200225163051 52 82 0.0 5.0 0.00 0.00 0.00 49 1012.2
20200225161722 52 130 0.0 5.0 0.00 0.00 0.00 50 1012.4
20200225154617 51 144 0.0 3.0 0.00 0.00 0.00 42 1012.8
20200225153051 51 146 0.0 4.0 0.00 0.00 0.00 41 1012.8
20200225151545 50 194 0.0 2.0 0.00 0.00 0.00 38 1012.9
20200225144535 48 189 0.0 1.0 0.00 0.00 0.00 27 1013.0
20200225143023 48 169 0.0 2.0 0.00 0.00 0.00 24 1012.9
20200225141548 47 94 0.0 0.0 0.00 0.00 0.00 22 1012.5
20200225134516 46 94 0.0 1.0 0.00 0.00 0.00 16 1012.3
20200225133005 45 94 0.0 1.0 0.00 0.00 0.00 14 1012.3
20200225131641 45 94 0.0 1.0 0.00 0.00 0.00 13 1012.4
20200225124652 44 94 0.0 0.0 0.00 0.00 0.00 13 1012.2
20200225123156 44 94 0.0 0.0 0.00 0.00 0.00 1012.2
20200225121620 0 0.0 0.0 0.00 0.00 0.00 1012.5
20200225114625 0 0.0 0.0 0.00 0.00 0.00 1012.3
20200225113055 0 0.0 0.0 0.00 0.00 0.00 1012.2
20200225111712 0 0.0 0.0 0.00 0.00 0.00 1012.2
20200225104519 0 0.0 0.0 0.00 0.00 0.00 1012.2
20200225103035 0 0.0 0.0 0.00 0.00 0.00 1012.4
20200225101530 0 0.0 0.0 0.00 0.00 0.00 1012.3
20200225094512 0 0.0 0.0 0.00 0.00 0.00 1012.9
20200225093211 0 0.0 0.0 0.00 0.00 0.00 1013.1
20200225091707 0 0.0 0.0 0.00 0.00 0.00 1012.9
20200225084718 42 94 0.0 0.0 0.00 0.00 0.00 1 1012.5
20200225083133 43 94 0.0 0.0 0.00 0.00 0.00 22 1012.7
20200225081624 43 94 0.0 0.0 0.00 0.00 0.00 22 1012.8
20200225074727 43 94 0.0 1.0 0.00 0.00 0.00 22 1012.6
20200225073054 43 93 0.0 1.0 0.00 0.00 0.00 22 1012.8
20200225071621 43 101 0.0 1.0 0.00 0.00 0.00 22 1012.9
20200225064551 44 122 0.0 0.0 0.00 0.00 0.00 28 1013.3
20200225063124 44 122 0.0 0.0 0.00 0.00 0.00 29 1013.3
20200225061705 44 122 0.0 0.0 0.00 0.00 0.00 29 1013.3
20200225054541 44 122 0.0 0.0 0.00 0.00 0.00 30 1013.5
20200225053150 44 122 0.0 0.0 0.00 0.00 0.00 32 1013.4
20200225051641 45 163 0.0 1.0 0.00 0.00 0.00 36 1013.4
20200225044554 45 163 0.0 0.0 0.00 0.00 0.00 43 1013.7
20200225043104 45 163 0.0 1.0 0.00 0.00 0.00 48 1014.0
20200225041540 45 163 0.0 1.0 0.00 0.00 0.00 52 1014.0
20200225034558 45 163 0.0 0.0 0.00 0.00 0.00 54 1014.8
20200225033035 45 163 0.0 1.0 0.00 0.00 0.00 55 1014.9
20200225031555 45 163 0.0 1.0 0.00 0.00 0.00 55 1014.7
20200225024623 45 163 0.0 0.0 0.00 0.00 0.00 55 1014.6
20200225023039 45 163 0.0 1.0 0.00 0.00 0.00 56 1014.6
20200225021607 45 171 0.0 1.0 0.00 0.00 0.00 57 1014.6
20200225014540 46 171 0.0 1.0 0.00 0.00 0.00 57 1014.5
20200225013300 46 171 0.0 1.0 0.00 0.00 0.00 57 1014.7
20200225011634 46 159 0.0 1.0 0.00 0.00 0.00 57 1014.7
20200225004540 47 159 0.0 2.0 0.00 0.00 0.00 58 1014.8
20200225003116 47 163 0.0 2.0 0.00 0.00 0.00 57 1015.1
20200225001532 47 172 0.0 3.0 0.00 0.00 0.00 57 1015.5
20200224234612 48 154 1.0 5.0 0.00 0.00 0.00 56 1015.8
20200224233144 49 172 0.0 2.0 0.00 0.00 0.00 55 1015.2
20200224231522 49 147 0.0 2.0 0.00 0.00 0.00 53 1014.7
20200224224556 51 166 0.0 5.0 0.00 0.00 0.00 49 1014.3
20200224223028 51 184 0.0 2.0 0.00 0.00 0.00 46 1014.4
20200224221522 52 180 1.0 5.0 0.00 0.00 0.00 44 1014.6
20200224214603 54 190 0.0 6.0 0.00 0.00 0.00 37 1014.7
20200224213029 55 173 1.0 5.0 0.00 0.00 0.00 32 1014.9
20200224211612 56 114 0.0 10.0 0.00 0.00 0.00 27 1015.0